Regional Weather Roundup
Issued by NWS Charleston, SC

Current Version | Previous Version | Graphics & Text | Print | Product List | Glossary On
Versions: 1 2 3 4 5 6 7 8 9 10 11 12 13 14 15 16 17 18 19 20 21 22 23 24 25 26 27 28 29 30 31 32 33 34 35 36 37 38 39 40 41 42 43 44 45 46 47 48 49 50
426
ASUS42 KCHS 271927
RWRCHS

REGIONAL WEATHER ROUNDUP
NATIONAL WEATHER SERVICE CHARLESTON SC
300 PM EDT MON MAR 27 2017

NOTE: "FAIR" INDICATES FEW OR NO CLOUDS BELOW 12,000 FEET WITH NO
SIGNIFICANT WEATHER AND/OR OBSTRUCTIONS TO VISIBILITY.

NOT ALL STATIONS ARE QUALITY CONTROLLED. USE DATA WITH CAUTION...
ESPECIALLY DEWPOINT OBSERVATIONS.

SCZ027-030-031-034>040-042>050-272000-
...SOUTHEAST SOUTH CAROLINA...

CITY           SKY/WX    TMP DP  RH WIND       PRES   REMARKS
N CHARLESTON   PTSUNNY   80  58  46 S14       30.07F
WATERFRONT PRK   N/A     71  60  68 S15       30.08F
JOHNS ISLAND   FAIR      75  59  57 S15       30.08F
PINOPOLIS        N/A     79  61  53 SW5       30.01F
MONCKS CORNER  FAIR      77  55  47 SE10      30.05F
SUMMERVILLE    CLOUDY    79  57  47 S5        30.05F
BEAUFORT MCAS  MOSUNNY   79  65  62 SE9       30.07F
BEAUFORT ARPT  FAIR      77  61  57 S13       30.06F
HILTON HEAD IS MOSUNNY   75  61  60 SE6G16    30.10F
WALTERBORO     MOCLDY    79  59  50 S9        30.05F
ALLENDALE      CLOUDY    79  59  50 CALM      30.04F

...SOUTHERN MIDLANDS AND PEE DEE...

CITY           SKY/WX    TMP DP  RH WIND       PRES   REMARKS
GEORGETOWN     MOCLDY    77  55  47 S10G18    30.08F
KINGSTREE      MOCLDY    81  55  41 SE8       30.04F
ORANGEBURG     CLOUDY    81  59  47 SW14      30.04F
BARNWELL       FAIR      81  63  54 S7        30.04F
AIKEN          FAIR      79  59  50 SW8       30.07F
MANNING        FAIR      79  59  50 S7        30.04F
COLUMBIA       CLOUDY    83  58  42 SW10G17   30.02F
SUMTER         PTSUNNY   78  59  51 SW5       30.02F
FLORENCE       MOSUNNY   81  59  47 SW8       30.04F
MYRTLE BEACH   MOSUNNY   73  55  53 S14       30.10F
N MYRTLE BEACH SUNNY     73  56  54 S12       30.09F

$$

GAZ063-065-086>088-099>101-113>116-118-119-134>141-150-272000-
...SOUTHEAST GEORGIA...

CITY           SKY/WX    TMP DP  RH WIND       PRES   REMARKS
SAVANNAH ARPT  PTSUNNY   79  59  50 SE10      30.06F
HUNTER AAF     SUNNY     79  64  61 S9        30.04F
FORT STEWART   PTSUNNY   81  58  46 E6        30.03F
STATESBORO     PTSUNNY   81  60  49 W3        30.04F
SYLVANIA       MOCLDY   N/A N/A N/A CALM      30.05F
CLAXTON        MOCLDY    80  60  50 SW5       30.04F

...CSRA...CENTRAL AND FAR SOUTHEAST GEORGIA...

CITY           SKY/WX    TMP DP  RH WIND       PRES   REMARKS
THOMSON        PTSUNNY   80  58  47 NW8       30.08F
AUGUSTA-BUSH   MOSUNNY   82  60  47 MISG      30.02F
AUGUSTA-DANIEL PTSUNNY   82  57  42 VRB3G20   30.04F
SWAINSBORO     FAIR      81  55  41 CALM      30.04F
VIDALIA        PTSUNNY   82  59  44 SW7       30.04F
EASTMAN        FAIR      84  35  17 W6        30.06F
HAZLEHURST     FAIR      83  58  43 S6        30.04F
ALMA           PTSUNNY   81  60  48 W6        30.06F
WAYCROSS       CLOUDY    85  62  45 SW3       30.04F
JESUP          CLOUDY    81  54  39 CALM      30.05F
BAXLEY         FAIR      82  63  51 S3        30.04F
BRUNSWICK      MOSUNNY   79  63  57 SE15      30.07F
SAINT SIMONS   SUNNY     75  60  59 SE13      30.09F

$$

SCZ027-028-034-036>038-045-046-048>050-GAZ119-141-272000-
...LAKE AND SUPPLEMENTAL COASTAL OBSERVATIONS...

STATION/POSITION TIME  TEMP    WIND        PRES    WAVE   SWELL
                       AIR SEA DIR/SP/G            HT/PER HT/PER/DIR
                 (UTC) (F)     (DEG/KT/KT) (MB)    (FT/S) (FT/S/D)
WINYAH BAY       1845   73     160/ 12     1019.0F
LAKE MURRAY      1920   75        CALM     1015.9F
ACE BASIN NERRS  1830   77     160/  3     1019.0F
FORT PULASKI     1900   74 64  180/  8/ 14 1018.8
SAPELO ISLAND    1900   77     150/ 10     1019.0

$$

ANZ835-935-AMZ111-154-330-350-352-354-370-450-454-472-272000-
...C-MAN AND BUOY OBSERVATIONS...

STATION/POSITION TIME  TEMP    WIND        PRES    WAVE   SWELL
                       AIR SEA DIR/SP/G            HT/PER HT/PER/DIR
                 (UTC) (F)     (DEG/KT/KT) (MB)    (FT/S) (FT/S/D)
BUOY 41004       1850   71 73  230/  4/  6 1019.4F   4/10   3/120/10
BUOY 41008       1850   67 66  130/  6/  8 1019.5F   3/10   3/110/10
FOLLY BEACH CMAN 1900   70     180/  8/  9 1019.7F
CAPERS NEARSHORE 1908   67     190/  8/ 10 1018.9F
FRIPP NEARSHORE  1908   66 63  160/  8/ 12 1018.6F


STATION/POSITION TIME  TEMP    WIND        PRES    WAVE   SWELL
                       AIR SEA DIR/SP/G            HT/PER HT/PER/DIR
                 (UTC) (F)     (DEG/KT/KT) (MB)    (FT/S) (FT/S/D)
5E ST. MARYS GA  1900      68                N/A     3/10   2/120/11
FRYING PAN BUOY  1910   71 77  280/  8/ 10 1019.5
BUOY 41025       1850   71 76  230/  8/ 10 1019.8F   4/ 9   3/140/ 9
CAPE LOOKOUT NC  1900   67     150/  8/  9 1019.4F
BUOY 41002       1850   69 72  100/  6/ 10 1020.2F   6/10   7/120/10
BUOY 41010       NOT AVBL
ST AUGUSTINE FL  1900   70 71  110/  9/ 10 1020.1F


$$




USA.gov is the U.S. government's official web portal to all federal, state and local government web resources and services.